Le nostre stazioni meteo in Italia

Pubblicità
Il mio iltempo24.it
Pantelleria, Italia (16470): Temperatura & dewpoint: 15.08.2019 14:00:00 - 21.08.2019 14:00:00 (CEST)Pantelleria, Italia (16470): velocità del vento: 15.08.2019 14:00:00 - 21.08.2019 14:00:00 (CEST)Pantelleria, Italia (16470): direzione del vento: 15.08.2019 14:00:00 - 21.08.2019 14:00:00 (CEST)Pantelleria, Italia (16470): visibility: 15.08.2019 14:00:00 - 21.08.2019 14:00:00 (CEST)
Data & Tempo tt [°C] td [°C] ff [km/h] ff [kn] dd vv [km]
21.08.2019 14:00:00 26,0 22,0 13 7 N 10
21.08.2019 13:00:00 26,0 21,0 15 8 N 10
21.08.2019 12:00:00 26,0 22,0 13 7 NNE 10
21.08.2019 11:00:00 26,0 21,0 11 6 N 10
21.08.2019 10:00:00 27,0 20,0 11 6 N 10
21.08.2019 09:00:00 27,0 18,0 8 4 N 10
21.08.2019 08:00:00 25,0 19,0 2 1 - 10
21.08.2019 07:00:00 23,0 20,0 16 9 SSE 10
21.08.2019 06:00:00 - - - - - -
21.08.2019 05:00:00 - - - - - -
21.08.2019 04:00:00 - - - - - -
21.08.2019 03:00:00 - - - - - -
21.08.2019 02:00:00 - - - - - -
21.08.2019 01:00:00 - - - - - -
21.08.2019 00:00:00 - - - - - -
20.08.2019 23:00:00 - - - - - -
20.08.2019 22:00:00 - - - - - -
20.08.2019 21:00:00 - - - - - -
20.08.2019 20:00:00 26,0 20,0 4 2 - 10
20.08.2019 19:00:00 27,0 20,0 9 5 O 10
20.08.2019 18:00:00 30,0 16,0 13 7 ENE 10
20.08.2019 17:00:00 31,0 17,0 13 7 NE 10
20.08.2019 16:00:00 30,0 19,0 16 9 S 10
20.08.2019 15:00:00 29,0 20,0 21 11 S 10
20.08.2019 14:00:00 29,0 21,0 26 14 SSE 10
20.08.2019 13:00:00 28,0 21,0 22 12 S 10
20.08.2019 12:00:00 28,0 22,0 26 14 S 10
20.08.2019 11:00:00 28,0 22,0 24 13 SSE 10
20.08.2019 10:00:00 27,0 20,0 15 8 SSE 10
20.08.2019 09:00:00 27,0 21,0 9 5 N 10
20.08.2019 08:00:00 24,0 20,0 0 0 N 10
20.08.2019 07:00:00 19,0 16,0 4 2 SSO 10
20.08.2019 06:00:00 - - - - - -
20.08.2019 05:00:00 - - - - - -
20.08.2019 04:00:00 - - - - - -
20.08.2019 03:00:00 - - - - - -
20.08.2019 02:00:00 - - - - - -
20.08.2019 01:00:00 - - - - - -
20.08.2019 00:00:00 - - - - - -
19.08.2019 23:00:00 - - - - - -
19.08.2019 22:00:00 - - - - - -
19.08.2019 21:00:00 - - - - - -
19.08.2019 20:00:00 27,0 14,0 15 8 SSE 10
19.08.2019 19:00:00 29,0 16,0 16 9 SSE 10
19.08.2019 18:00:00 30,0 16,0 22 12 SSE 10
19.08.2019 17:00:00 30,0 18,0 24 13 SSE 10
19.08.2019 16:00:00 31,0 20,0 18 10 O 10
19.08.2019 15:00:00 32,0 18,0 21 11 SSE 10
19.08.2019 14:00:00 31,0 19,0 21 11 SSE 10
19.08.2019 13:00:00 31,0 20,0 22 12 S 10
19.08.2019 12:00:00 30,0 20,0 8 4 - 10
19.08.2019 11:00:00 29,0 21,0 18 10 SSE 10
19.08.2019 10:00:00 28,0 21,0 4 2 - 10
19.08.2019 09:00:00 27,0 21,0 11 6 OSO 10
19.08.2019 08:00:00 24,0 22,0 8 4 NO 10
19.08.2019 07:00:00 24,0 21,0 8 4 ONO 10
19.08.2019 06:00:00 - - - - - -
19.08.2019 05:00:00 - - - - - -
19.08.2019 04:00:00 - - - - - -
19.08.2019 03:00:00 - - - - - -
19.08.2019 02:00:00 - - - - - -
19.08.2019 01:00:00 - - - - - -
19.08.2019 00:00:00 - - - - - -
18.08.2019 23:00:00 - - - - - -
18.08.2019 22:00:00 - - - - - -
18.08.2019 21:00:00 - - - - - -
18.08.2019 20:00:00 27,0 19,0 8 4 O 10
18.08.2019 19:00:00 29,0 16,0 15 8 N 10
18.08.2019 18:00:00 29,0 17,0 16 9 S 10
18.08.2019 17:00:00 30,0 18,0 15 8 ENE 10
18.08.2019 16:00:00 30,0 16,0 22 12 SSE 10
18.08.2019 15:00:00 30,0 12,0 13 7 - 10
18.08.2019 14:00:00 30,0 18,0 22 12 S 10
18.08.2019 13:00:00 29,0 19,0 5 3 - 10
18.08.2019 12:00:00 27,0 22,0 9 5 NE 10
18.08.2019 11:00:00 27,0 22,0 8 4 N 10
18.08.2019 10:00:00 27,0 22,0 8 4 NNO 10
18.08.2019 09:00:00 25,0 23,0 4 2 SO 10
18.08.2019 08:00:00 23,0 23,0 4 2 - 10
18.08.2019 07:00:00 21,0 21,0 5 3 O 10
18.08.2019 06:00:00 - - - - - -
18.08.2019 05:00:00 - - - - - -
18.08.2019 04:00:00 - - - - - -
18.08.2019 03:00:00 - - - - - -
18.08.2019 02:00:00 - - - - - -
18.08.2019 01:00:00 - - - - - -
18.08.2019 00:00:00 - - - - - -
17.08.2019 23:00:00 - - - - - -
17.08.2019 22:00:00 - - - - - -
17.08.2019 21:00:00 - - - - - -
17.08.2019 20:00:00 25,0 22,0 13 7 N 10
17.08.2019 19:00:00 26,0 23,0 11 6 NNO 10
17.08.2019 18:00:00 26,0 22,0 9 5 N 10
17.08.2019 17:00:00 27,0 22,0 15 8 ONO 10
17.08.2019 16:00:00 27,0 22,0 13 7 NNO 10
17.08.2019 15:00:00 27,0 22,0 16 9 ONO 10
17.08.2019 14:00:00 27,0 22,0 16 9 NNO 10
17.08.2019 13:00:00 27,0 22,0 13 7 ONO 10
17.08.2019 12:00:00 27,0 22,0 13 7 ONO 10
17.08.2019 11:00:00 26,0 22,0 13 7 NO 10
17.08.2019 10:00:00 26,0 22,0 13 7 NO 10
17.08.2019 09:00:00 25,0 22,0 13 7 NO 10
17.08.2019 08:00:00 24,0 22,0 9 5 O 10
17.08.2019 07:00:00 23,0 22,0 9 5 O 10
17.08.2019 06:00:00 - - - - - -
17.08.2019 05:00:00 - - - - - -
17.08.2019 04:00:00 - - - - - -
17.08.2019 03:00:00 - - - - - -
17.08.2019 02:00:00 - - - - - -
17.08.2019 01:00:00 - - - - - -
17.08.2019 00:00:00 - - - - - -
16.08.2019 23:00:00 - - - - - -
16.08.2019 22:00:00 - - - - - -
16.08.2019 21:00:00 - - - - - -
16.08.2019 20:00:00 25,0 21,0 16 9 ONO 10
16.08.2019 19:00:00 26,0 20,0 22 12 ONO 10
16.08.2019 18:00:00 27,0 21,0 18 10 O 10
16.08.2019 17:00:00 27,0 21,0 22 12 O 10
16.08.2019 16:00:00 27,0 21,0 21 11 O 10
16.08.2019 15:00:00 28,0 21,0 26 14 O 10
16.08.2019 14:00:00 28,0 21,0 29 16 O 10
16.08.2019 13:00:00 28,0 22,0 24 13 O 10
16.08.2019 12:00:00 27,0 22,0 29 16 O 10
16.08.2019 11:00:00 26,0 22,0 22 12 O 10
16.08.2019 10:00:00 26,0 22,0 13 7 O 10
16.08.2019 09:00:00 25,0 22,0 13 7 O 10
16.08.2019 08:00:00 24,0 22,0 13 7 O 10
16.08.2019 07:00:00 23,0 21,0 13 7 O 10
16.08.2019 06:00:00 - - - - - -
16.08.2019 05:00:00 - - - - - -
16.08.2019 04:00:00 - - - - - -
16.08.2019 03:00:00 - - - - - -
16.08.2019 02:00:00 - - - - - -
16.08.2019 01:00:00 - - - - - -
16.08.2019 00:00:00 - - - - - -
15.08.2019 23:00:00 - - - - - -
15.08.2019 22:00:00 - - - - - -
15.08.2019 21:00:00 - - - - - -
15.08.2019 20:00:00 25,0 20,0 21 11 ONO 10
15.08.2019 19:00:00 - - - - - -
15.08.2019 18:00:00 26,0 21,0 24 13 ONO 10
15.08.2019 17:00:00 27,0 21,0 18 10 ONO 10
15.08.2019 16:00:00 27,0 21,0 24 13 NO 10
15.08.2019 15:00:00 27,0 21,0 28 15 O 10
15.08.2019 14:00:00 27,0 22,0 29 16 ONO 10

tt = Temperatura
td = dewpoint
ff = velocità del vento
dd = direzione del vento
vv = visibility

Stazioni seguenti

WeatherPro
AMSI
MeteoEarth